Miscellaneous Local Product
Issued by NWS Hastings, NE

Home | Current Version | Previous Version | Graphics & Text | Print | Product List | Glossary On
Versions: 1 2 3 4 5 6 7 8 9 10 11 12 13 14 15 16 17 18 19 20 21 22 23 24 25 26 27 28 29 30 31 32 33 34 35 36 37 38 39 40 41 42 43 44 45 46 47 48 49 50
000
AXUS43 KGID 221510
MISGRI

GID CWA HOURLY WEATHER ROUNDUP
NATIONAL WEATHER SERVICE HASTINGS NE
1000 AM CDT TUE JUL 22 2014

NOTE: "FAIR" INDICATES FEW OR NO CLOUDS BELOW 12,000 FEET WITH NO
SIGNIFICANT WEATHER AND/OR OBSTRUCTIONS TO VISIBILITY.

...SOUTH CENTRAL NEBRASKA...

CITY           SKY/WX    TMP DP  RH WIND       PRES   REMARKS
GRAND ISLAND   MOSUNNY   80  63  55 NE6       30.06F
HASTINGS       PTSUNNY   82  64  54 NE6       30.07S
KEARNEY        MOSUNNY   82  63  51 E13       30.09S
ORD            PTSUNNY   78  61  55 NE7       30.08R
YORK           MOSUNNY   81  72  74 NE7       30.04S
AURORA         MOSUNNY   80  68  65 NE6       30.05S
LEXINGTON      SUNNY     82  62  50 E15       30.08R
HOLDREGE       SUNNY     79  63  56 E13       30.10S
HEBRON         SUNNY     87  67  51 W6        30.03F

...NEBRASKA PANHANDLE...

CITY           SKY/WX    TMP DP  RH WIND       PRES   REMARKS
CHADRON        SUNNY     76  61  59 NE8       30.21R
ALLIANCE       SUNNY     80  53  39 NE16      30.21S
SCOTTSBLUFF    SUNNY     78  59  51 SE6       30.23S
SIDNEY         SUNNY     80  54  40 CALM      30.27R

...WESTERN AND NORTH CENTRAL NEBRASKA...

CITY           SKY/WX    TMP DP  RH WIND       PRES   REMARKS
VALENTINE      SUNNY     76  62  62 E9        30.12F
AINSWORTH      MOSUNNY   73  62  70 NE7       30.15F
ONEILL         MOSUNNY   75  61  61 N14       30.15R
BROKEN BOW     MOSUNNY   81  61  50 E14G20    30.11R
IMPERIAL       SUNNY     80  58  46 CALM      30.18R
NORTH PLATTE   SUNNY     82  60  47 E9        30.13R
MCCOOK         SUNNY     82  61  48 E20G26    30.10R

...EASTERN NEBRASKA...

CITY           SKY/WX    TMP DP  RH WIND       PRES   REMARKS
NORFOLK        MOSUNNY   82  62  50 NE9       30.03S
SO SIOUX CITY  PTSUNNY   83  66  56 N3        30.00R
TEKAMAH        CLOUDY    84  71  65 NE5       29.97S
COLUMBUS       SUNNY     82  64  54 NE8       30.03R
ALBION         PTSUNNY   80  60  50 NE6       30.05R
OMAHA EPPLEY   MOSUNNY   86  75  69 NE12      29.97F HX  95
OFFUTT AFB     MOSUNNY   87  77  73 VRB5      29.97S HX  98
MILLARD        MOSUNNY   87  77  71 NE3       29.96F HX  98
LINCOLN        SUNNY     87  74  64 NE9       30.00F HX  95
NEBRASKA CITY  SUNNY     84  71  64 W7        29.99F
BEATRICE       SUNNY     81  71  71 W7        30.01F
FALLS CITY     SUNNY     87  75  67 SW10      29.99F HX  96

...NORTHERN KANSAS...

CITY           SKY/WX    TMP DP  RH WIND       PRES   REMARKS
GOODLAND       SUNNY     84  59  42 E17       30.17R
HILL CITY      SUNNY     80  65  59 S7        30.11S
NORTON         SUNNY     81  59  47 E7        30.09
PHILLIPSBURG   SUNNY     81  63  54 SW3       30.09S
SMITH CENTER   SUNNY     84  63  48 SW3       30.08S
HAYS           SUNNY     81  63  54 S3        30.10F
RUSSELL        SUNNY     85  67  54 N6        30.09R
CONCORDIA      MOSUNNY   88  65  46 SW12      30.05F HX  90
SALINA         MOSUNNY   90  70  51 NW13      30.07R HX  95
TOPEKA         SUNNY     85  76  74 W8        30.04R HX  94



USA.gov is the U.S. government's official web portal to all federal, state and local government web resources and services.